| time (UTC) | temp F | wind direction | speed knots | gust knots | rain 1hr in | rain 24hr in | rain mn in | humidity % | barometer mb |
| 20260502200316 | 51 | 0 | 5.2 | 7.0 | 0.00 | 0.00 | 0.00 | 28 | 1027.7 |
| 20260502195814 | 53 | 356 | 4.3 | 7.0 | 0.00 | 0.00 | 0.00 | 28 | 1027.5 |
| 20260502195310 | 53 | 239 | 1.7 | 2.6 | 0.00 | 0.00 | 0.00 | 30 | 1027.3 |
| 20260502194807 | 52 | 262 | 1.7 | 2.6 | 0.00 | 0.00 | 0.00 | 27 | 1027.4 |
| 20260502194304 | 50 | 253 | 1.7 | 2.6 | 0.00 | 0.00 | 0.00 | 28 | 1027.7 |
| 20260502193800 | 51 | 91 | 4.3 | 7.0 | 0.00 | 0.00 | 0.00 | 26 | 1027.9 |
| 20260502193257 | 51 | 258 | 5.2 | 7.8 | 0.00 | 0.00 | 0.00 | 27 | 1027.8 |
| 20260502192752 | 51 | 294 | 0.9 | 6.1 | 0.00 | 0.00 | 0.00 | 32 | 1027.8 |
| 20260502192250 | 51 | 223 | 3.5 | 7.0 | 0.00 | 0.00 | 0.00 | 29 | 1027.8 |
| 20260502191746 | 51 | 259 | 2.6 | 6.1 | 0.00 | 0.00 | 0.00 | 28 | 1027.8 |
| 20260502191244 | 50 | 224 | 1.7 | 2.6 | 0.00 | 0.00 | 0.00 | 27 | 1027.9 |
| 20260502190741 | 49 | 230 | 2.6 | 7.0 | 0.00 | 0.00 | 0.00 | 28 | 1027.8 |
| 20260502190238 | 50 | 53 | 7.0 | 8.7 | 0.00 | 0.00 | 0.00 | 28 | 1028.1 |
| 20260502185733 | 49 | 340 | 4.3 | 7.0 | 0.00 | 0.00 | 0.00 | 31 | 1028.1 |
| 20260502185229 | 50 | 209 | 0.9 | 5.2 | 0.00 | 0.00 | 0.00 | 26 | 1028.1 |
| 20260502184726 | 50 | 229 | 3.5 | 5.2 | 0.00 | 0.00 | 0.00 | 25 | 1027.9 |
| 20260502184222 | 49 | 130 | 0.9 | 5.2 | 0.00 | 0.00 | 0.00 | 31 | 1028.1 |
| 20260502183719 | 50 | 323 | 0.9 | 5.2 | 0.00 | 0.00 | 0.00 | 27 | 1028.2 |
| 20260502183214 | 51 | 275 | 0.9 | 3.5 | 0.00 | 0.00 | 0.00 | 33 | 1028.2 |
| 20260502182710 | 48 | 28 | 1.7 | 3.5 | 0.00 | 0.00 | 0.00 | 29 | 1028.3 |
| 20260502182205 | 48 | 100 | 2.6 | 3.5 | 0.00 | 0.00 | 0.00 | 28 | 1028.5 |
| 20260502181703 | 48 | 29 | 1.7 | 6.1 | 0.00 | 0.00 | 0.00 | 29 | 1028.2 |
| 20260502181202 | 47 | 9 | 1.7 | 7.8 | 0.00 | 0.00 | 0.00 | 34 | 1028.3 |
| 20260502180659 | 50 | 156 | 0.9 | 3.5 | 0.00 | 0.00 | 0.00 | 30 | 1028.5 |
| 20260502180156 | 47 | 79 | 2.6 | 3.5 | 0.00 | 0.00 | 0.00 | 30 | 1028.7 |
| 20260502170120 | 48 | 234 | 1.7 | 2.6 | 0.00 | 0.00 | 0.00 | 32 | 1028.5 |
| 20260502164107 | 44 | 287 | 3.5 | 7.8 | 0.00 | 0.00 | 0.00 | 32 | 1028.3 |
| 20260502163603 | 45 | 348 | 3.5 | 6.1 | 0.00 | 0.00 | 0.00 | 32 | 1028.3 |
| 20260502163059 | 44 | 25 | 2.6 | 5.2 | 0.00 | 0.00 | 0.00 | 31 | 1028.3 |
| 20260502162556 | 45 | 315 | 7.0 | 7.8 | 0.00 | 0.00 | 0.00 | 32 | 1028.6 |
| 20260502162054 | 45 | 309 | 0.9 | 2.6 | 0.00 | 0.00 | 0.00 | 33 | 1028.5 |
| 20260502161550 | 44 | 333 | 2.6 | 6.1 | 0.00 | 0.00 | 0.00 | 34 | 1028.5 |
| 20260502161048 | 45 | 287 | 3.5 | 7.0 | 0.00 | 0.00 | 0.00 | 32 | 1028.3 |
| 20260502160546 | 44 | 253 | 0.0 | 3.5 | 0.00 | 0.00 | 0.00 | 35 | 1028.3 |
| 20260502151959 | 42 | 251 | 0.0 | 0.9 | 0.00 | 0.00 | 0.00 | 35 | 1028.6 |
| 20260502151455 | 42 | 325 | 4.3 | 5.2 | 0.00 | 0.00 | 0.00 | 34 | 1029.0 |
| 20260502150953 | 42 | 265 | 0.0 | 2.6 | 0.00 | 0.00 | 0.00 | 32 | 1028.9 |
| 20260502150450 | 41 | 297 | 0.9 | 1.7 | 0.00 | 0.00 | 0.00 | 34 | 1028.9 |
| 20260502130336 | 35 | 246 | 0.0 | 2.6 | 0.00 | 0.00 | 0.00 | 49 | 1028.5 |
| 20260502123318 | 32 | 246 | 1.7 | 1.7 | 0.00 | 0.00 | 0.00 | 57 | 1028.3 |
| 20260502122815 | 32 | 228 | 1.7 | 3.5 | 0.00 | 0.00 | 0.00 | 55 | 1028.2 |
| 20260502122310 | 32 | 225 | 2.6 | 2.6 | 0.00 | 0.00 | 0.00 | 55 | 1028.3 |
| 20260502121809 | 31 | 220 | 2.6 | 2.6 | 0.00 | 0.00 | 0.00 | 55 | 1028.3 |
| 20260502121306 | 31 | 229 | 1.7 | 2.6 | 0.00 | 0.00 | 0.00 | 55 | 1028.3 |
| 20260502120803 | 32 | 239 | 2.6 | 3.5 | 0.00 | 0.00 | 0.00 | 54 | 1028.2 |
| 20260502120300 | 32 | 219 | 2.6 | 3.5 | 0.00 | 0.00 | 0.00 | 54 | 1027.8 |
| 20260502115757 | 30 | 235 | 1.7 | 2.6 | 0.00 | 0.00 | 0.00 | 57 | 1028.2 |
| 20260502115254 | 31 | 214 | 1.7 | 2.6 | 0.00 | 0.00 | 0.00 | 55 | 1028.1 |
| 20260502114750 | 31 | 222 | 1.7 | 2.6 | 0.00 | 0.00 | 0.00 | 57 | 1027.8 |
| 20260502114247 | 31 | 216 | 2.6 | 3.5 | 0.00 | 0.00 | 0.00 | 57 | 1028.1 |
| 20260502113744 | 30 | 230 | 0.9 | 2.6 | 0.00 | 0.00 | 0.00 | 60 | 1028.1 |
| 20260502113242 | 30 | 217 | 1.7 | 2.6 | 0.00 | 0.00 | 0.00 | 61 | 1028.2 |
| 20260502112740 | 30 | 211 | 2.6 | 2.6 | 0.00 | 0.00 | 0.00 | 61 | 1027.9 |
| 20260502112237 | 31 | 222 | 2.6 | 2.6 | 0.00 | 0.00 | 0.00 | 58 | 1027.9 |
| 20260502111734 | 31 | 228 | 1.7 | 2.6 | 0.00 | 0.00 | 0.00 | 61 | 1028.1 |
| 20260502111232 | 32 | 228 | 3.5 | 3.5 | 0.00 | 0.00 | 0.00 | 56 | 1027.9 |
| 20260502110729 | 32 | 242 | 2.6 | 5.2 | 0.00 | 0.00 | 0.00 | 55 | 1028.2 |
| 20260502110227 | 32 | 230 | 2.6 | 3.5 | 0.00 | 0.00 | 0.00 | 55 | 1028.1 |
| 20260502105724 | 32 | 223 | 2.6 | 3.5 | 0.00 | 0.00 | 0.00 | 55 | 1028.1 |
| 20260502105220 | 32 | 225 | 1.7 | 3.5 | 0.00 | 0.00 | 0.00 | 57 | 1027.8 |
| 20260502104718 | 32 | 198 | 3.5 | 5.2 | 0.00 | 0.00 | 0.00 | 55 | 1028.1 |
| 20260502104216 | 31 | 251 | 2.6 | 5.2 | 0.00 | 0.00 | 0.00 | 57 | 1028.2 |
| 20260502103713 | 32 | 237 | 2.6 | 3.5 | 0.00 | 0.00 | 0.00 | 56 | 1028.1 |
| 20260502103211 | 32 | 222 | 1.7 | 2.6 | 0.00 | 0.00 | 0.00 | 58 | 1028.2 |
| 20260502102707 | 32 | 230 | 2.6 | 3.5 | 0.00 | 0.00 | 0.00 | 57 | 1028.1 |
| 20260502102204 | 31 | 239 | 1.7 | 6.1 | 0.00 | 0.00 | 0.00 | 57 | 1028.2 |
| 20260502101702 | 30 | 222 | 1.7 | 2.6 | 0.00 | 0.00 | 0.00 | 64 | 1027.9 |
| 20260502101200 | 30 | 229 | 3.5 | 3.5 | 0.00 | 0.00 | 0.00 | 64 | 1028.2 |
| 20260502100658 | 30 | 233 | 1.7 | 2.6 | 0.00 | 0.00 | 0.00 | 63 | 1027.9 |
| 20260502100156 | 30 | 216 | 2.6 | 3.5 | 0.00 | 0.00 | 0.00 | 65 | 1027.9 |
| 20260502091130 | 27 | 218 | 2.6 | 3.5 | 0.00 | 0.00 | 0.00 | 75 | 1027.8 |
| 20260502090627 | 27 | 201 | 2.6 | 2.6 | 0.00 | 0.00 | 0.00 | 77 | 1027.8 |
| 20260502090124 | 27 | 209 | 2.6 | 2.6 | 0.00 | 0.00 | 0.00 | 77 | 1027.7 |
| 20260502071522 | 27 | 204 | 2.6 | 2.6 | 0.00 | 0.00 | 0.00 | 81 | 1028.3 |
| 20260502071020 | 27 | 212 | 2.6 | 3.5 | 0.00 | 0.00 | 0.00 | 79 | 1028.3 |
| 20260502070518 | 27 | 206 | 2.6 | 2.6 | 0.00 | 0.00 | 0.00 | 81 | 1028.5 |
| 20260502070016 | 27 | 211 | 2.6 | 2.6 | 0.00 | 0.00 | 0.00 | 82 | 1028.5 |
| 20260502065514 | 26 | 212 | 2.6 | 2.6 | 0.00 | 0.00 | 0.00 | 82 | 1028.3 |
| 20260502065011 | 26 | 210 | 1.7 | 2.6 | 0.00 | 0.00 | 0.00 | 83 | 1028.6 |
| 20260502064510 | 26 | 215 | 1.7 | 2.6 | 0.00 | 0.00 | 0.00 | 83 | 1028.6 |
| 20260502064006 | 26 | 208 | 2.6 | 2.6 | 0.00 | 0.00 | 0.00 | 83 | 1028.6 |
| 20260502063504 | 26 | 208 | 2.6 | 2.6 | 0.00 | 0.00 | 0.00 | 83 | 1028.5 |
| 20260502063002 | 27 | 211 | 1.7 | 2.6 | 0.00 | 0.00 | 0.00 | 83 | 1028.6 |
| 20260502062458 | 27 | 207 | 2.6 | 2.6 | 0.00 | 0.00 | 0.00 | 83 | 1028.7 |
| 20260502061957 | 27 | 211 | 2.6 | 2.6 | 0.00 | 0.00 | 0.00 | 84 | 1028.6 |
| 20260502061454 | 27 | 210 | 1.7 | 2.6 | 0.00 | 0.00 | 0.00 | 83 | 1028.5 |
| 20260502060950 | 27 | 214 | 1.7 | 2.6 | 0.00 | 0.00 | 0.00 | 84 | 1028.6 |
| 20260502060446 | 27 | 218 | 1.7 | 1.7 | 0.00 | 0.00 | 0.00 | 83 | 1028.6 |
| 20260502055943 | 27 | 219 | 1.7 | 2.6 | 0.00 | 0.35 | 0.35 | 82 | 1029.0 |
| 20260502055440 | 27 | 215 | 1.7 | 2.6 | 0.00 | 0.35 | 0.35 | 83 | 1028.5 |
| 20260502054935 | 27 | 220 | 1.7 | 1.7 | 0.00 | 0.35 | 0.35 | 83 | 1028.7 |
| 20260502054432 | 27 | 212 | 2.6 | 2.6 | 0.00 | 0.35 | 0.35 | 83 | 1028.5 |
| 20260502053929 | 27 | 218 | 1.7 | 2.6 | 0.00 | 0.35 | 0.35 | 83 | 1028.7 |
| 20260502053426 | 27 | 209 | 2.6 | 2.6 | 0.00 | 0.35 | 0.35 | 83 | 1028.7 |
| 20260502052924 | 28 | 214 | 1.7 | 2.6 | 0.00 | 0.35 | 0.35 | 84 | 1028.6 |
| 20260502052422 | 28 | 220 | 2.6 | 2.6 | 0.00 | 0.35 | 0.35 | 82 | 1028.7 |
| 20260502051920 | 28 | 207 | 2.6 | 2.6 | 0.00 | 0.35 | 0.35 | 80 | 1028.6 |
| 20260502051418 | 28 | 201 | 2.6 | 2.6 | 0.00 | 0.35 | 0.35 | 80 | 1028.6 |
| 20260502050914 | 28 | 222 | 1.7 | 2.6 | 0.00 | 0.35 | 0.35 | 80 | 1028.6 |
| 20260502050411 | 28 | 225 | 0.9 | 2.6 | 0.00 | 0.35 | 0.35 | 80 | 1028.5 |
| 20260502045908 | 28 | 225 | 1.7 | 2.6 | 0.00 | 0.35 | 0.35 | 80 | 1028.6 |
| 20260502045405 | 28 | 212 | 2.6 | 2.6 | 0.00 | 0.35 | 0.35 | 79 | 1028.6 |
| 20260502044902 | 29 | 207 | 1.7 | 2.6 | 0.00 | 0.35 | 0.35 | 79 | 1028.6 |
| 20260502044358 | 29 | 233 | 0.9 | 1.7 | 0.00 | 0.35 | 0.35 | 79 | 1028.5 |
| 20260502043855 | 29 | 246 | 1.7 | 2.6 | 0.00 | 0.35 | 0.35 | 80 | 1028.3 |
| 20260502043353 | 29 | 242 | 0.0 | 1.7 | 0.00 | 0.35 | 0.35 | 80 | 1028.3 |
| 20260502042852 | 29 | 225 | 0.9 | 1.7 | 0.00 | 0.35 | 0.35 | 82 | 1028.2 |
| 20260502042350 | 29 | 211 | 1.7 | 2.6 | 0.00 | 0.35 | 0.35 | 80 | 1028.5 |
| 20260502041847 | 29 | 226 | 0.9 | 1.7 | 0.00 | 0.35 | 0.35 | 82 | 1028.3 |
| 20260502041344 | 29 | 225 | 1.7 | 2.6 | 0.00 | 0.35 | 0.35 | 82 | 1028.3 |
| 20260502040841 | 28 | 202 | 2.6 | 2.6 | 0.00 | 0.35 | 0.35 | 81 | 1028.3 |
| 20260502040338 | 28 | 215 | 1.7 | 2.6 | 0.00 | 0.35 | 0.35 | 83 | 1028.3 |
| 20260502035834 | 29 | 226 | 1.7 | 2.6 | 0.00 | 0.35 | 0.35 | 83 | 1028.1 |
| 20260502035331 | 29 | 215 | 1.7 | 2.6 | 0.00 | 0.35 | 0.35 | 84 | 1027.9 |
| 20260502034828 | 29 | 211 | 1.7 | 2.6 | 0.00 | 0.35 | 0.35 | 83 | 1028.1 |
| 20260502034326 | 29 | 216 | 2.6 | 2.6 | 0.00 | 0.35 | 0.35 | 82 | 1028.2 |
| 20260502033825 | 29 | 206 | 2.6 | 2.6 | 0.00 | 0.35 | 0.35 | 83 | 1027.9 |
| 20260502033322 | 29 | 207 | 2.6 | 2.6 | 0.00 | 0.35 | 0.35 | 83 | 1027.7 |
| 20260502032818 | 29 | 210 | 2.6 | 2.6 | 0.00 | 0.35 | 0.35 | 82 | 1027.8 |
| 20260502032314 | 29 | 209 | 2.6 | 2.6 | 0.00 | 0.35 | 0.35 | 82 | 1027.5 |
| 20260502031812 | 29 | 214 | 2.6 | 2.6 | 0.00 | 0.35 | 0.35 | 82 | 1027.8 |
| 20260502031310 | 30 | 210 | 2.6 | 2.6 | 0.00 | 0.35 | 0.35 | 82 | 1027.7 |
| 20260502030809 | 29 | 220 | 2.6 | 2.6 | 0.00 | 0.35 | 0.35 | 82 | 1027.5 |
| 20260502030306 | 30 | 212 | 1.7 | 2.6 | 0.00 | 0.35 | 0.35 | 82 | 1027.5 |
| 20260502025803 | 30 | 216 | 2.6 | 2.6 | 0.00 | 0.35 | 0.35 | 81 | 1027.4 |
| 20260502025301 | 30 | 211 | 2.6 | 2.6 | 0.00 | 0.35 | 0.35 | 81 | 1027.4 |
| 20260502024759 | 30 | 210 | 2.6 | 2.6 | 0.00 | 0.35 | 0.35 | 83 | 1027.4 |
| 20260502024256 | 30 | 209 | 2.6 | 2.6 | 0.00 | 0.35 | 0.35 | 82 | 1027.1 |
| 20260502023754 | 30 | 216 | 1.7 | 2.6 | 0.00 | 0.35 | 0.35 | 81 | 1027.3 |
| 20260502023252 | 30 | 220 | 2.6 | 2.6 | 0.00 | 0.35 | 0.35 | 82 | 1027.0 |
| 20260502022749 | 30 | 212 | 2.6 | 2.6 | 0.00 | 0.35 | 0.35 | 81 | 1027.0 |
| 20260502022245 | 30 | 208 | 2.6 | 2.6 | 0.00 | 0.35 | 0.35 | 83 | 1027.0 |
| 20260502021742 | 30 | 214 | 2.6 | 2.6 | 0.00 | 0.35 | 0.35 | 81 | 1027.0 |
| 20260502021240 | 30 | 214 | 2.6 | 2.6 | 0.00 | 0.35 | 0.35 | 84 | 1026.8 |
| 20260502020737 | 30 | 208 | 2.6 | 2.6 | 0.00 | 0.35 | 0.35 | 82 | 1026.9 |
| 20260502020234 | 31 | 215 | 2.6 | 2.6 | 0.00 | 0.35 | 0.35 | 81 | 1026.9 |
| 20260502015732 | 31 | 220 | 1.7 | 2.6 | 0.00 | 0.35 | 0.35 | 81 | 1026.9 |
| 20260502015228 | 31 | 212 | 2.6 | 2.6 | 0.00 | 0.35 | 0.35 | 81 | 1026.9 |
| 20260502014725 | 31 | 213 | 1.7 | 2.6 | 0.00 | 0.35 | 0.35 | 79 | 1026.4 |
| 20260502014222 | 32 | 220 | 1.7 | 2.6 | 0.00 | 0.35 | 0.35 | 79 | 1026.5 |
| 20260502013719 | 32 | 221 | 1.7 | 1.7 | 0.00 | 0.35 | 0.35 | 78 | 1026.5 |
| 20260502013214 | 33 | 218 | 1.7 | 2.6 | 0.00 | 0.35 | 0.35 | 77 | 1026.6 |
| 20260502012711 | 35 | 233 | 0.0 | 0.0 | 0.00 | 0.35 | 0.35 | 77 | 1026.5 |
| 20260502012209 | 36 | 269 | 0.0 | 0.0 | 0.00 | 0.35 | 0.35 | 54 | 1026.4 |
| 20260502011706 | 37 | 253 | 0.0 | 0.0 | 0.00 | 0.35 | 0.35 | 66 | 1026.5 |
| 20260502011201 | 38 | 256 | 0.0 | 0.0 | 0.00 | 0.35 | 0.35 | 60 | 1026.2 |
| 20260502010700 | 38 | 262 | 0.0 | 0.0 | 0.00 | 0.35 | 0.35 | 49 | 1026.2 |
| 20260502010155 | 38 | 291 | 1.7 | 2.6 | 0.00 | 0.35 | 0.35 | 51 | 1026.5 |
| 20260502005653 | 38 | 305 | 1.7 | 2.6 | 0.00 | 0.35 | 0.35 | 51 | 1026.4 |
| 20260502005150 | 38 | 264 | 0.0 | 5.2 | 0.00 | 0.35 | 0.35 | 50 | 1026.6 |
| 20260502004646 | 38 | 309 | 0.9 | 1.7 | 0.00 | 0.35 | 0.35 | 51 | 1026.4 |
| 20260502004143 | 38 | 313 | 0.0 | 0.9 | 0.00 | 0.35 | 0.35 | 54 | 1026.4 |
| 20260502003641 | 39 | 267 | 1.7 | 1.7 | 0.00 | 0.35 | 0.35 | 48 | 1026.2 |
| 20260502003138 | 39 | 253 | 0.9 | 1.7 | 0.00 | 0.35 | 0.35 | 52 | 1026.0 |
| 20260502002634 | 41 | 263 | 0.0 | 0.9 | 0.00 | 0.35 | 0.35 | 51 | 1026.1 |
| 20260502002131 | 39 | 262 | 0.0 | 0.0 | 0.00 | 0.35 | 0.35 | 49 | 1026.1 |
| 20260502001629 | 39 | 245 | 1.7 | 2.6 | 0.00 | 0.35 | 0.35 | 52 | 1026.0 |
| 20260502001126 | 39 | 220 | 1.7 | 3.5 | 0.00 | 0.35 | 0.35 | 53 | 1026.1 |
| 20260502000624 | 39 | 316 | 1.7 | 2.6 | 0.00 | 0.35 | 0.35 | 52 | 1026.2 |
| 20260502000121 | 39 | 335 | 3.5 | 6.1 | 0.00 | 0.35 | 0.35 | 50 | 1026.4 |
| 20260501235617 | 39 | 7 | 4.3 | 6.1 | 0.00 | 0.35 | 0.35 | 50 | 1026.2 |
| 20260501235114 | 39 | 317 | 1.7 | 2.6 | 0.00 | 0.35 | 0.35 | 45 | 1026.2 |
| 20260501234609 | 39 | 16 | 3.5 | 6.1 | 0.00 | 0.35 | 0.35 | 48 | 1026.1 |
| 20260501234107 | 38 | 264 | 2.6 | 6.1 | 0.00 | 0.35 | 0.35 | 48 | 1025.8 |
| 20260501233605 | 38 | 8 | 1.7 | 6.1 | 0.00 | 0.35 | 0.35 | 52 | 1026.4 |
| 20260501233102 | 39 | 287 | 1.7 | 1.7 | 0.00 | 0.35 | 0.35 | 49 | 1025.8 |
| 20260501232557 | 38 | 338 | 3.5 | 7.0 | 0.00 | 0.35 | 0.35 | 51 | 1025.8 |
| 20260501232055 | 38 | 314 | 0.9 | 1.7 | 0.00 | 0.35 | 0.35 | 51 | 1025.8 |
| 20260501231553 | 38 | 57 | 2.6 | 5.2 | 0.00 | 0.35 | 0.35 | 50 | 1025.7 |
| 20260501231051 | 41 | 50 | 0.9 | 2.6 | 0.00 | 0.35 | 0.35 | 54 | 1025.4 |
| 20260501230549 | 41 | 254 | 0.9 | 5.2 | 0.00 | 0.35 | 0.35 | 42 | 1025.4 |
| 20260501230047 | 42 | 153 | 3.5 | 3.5 | 0.00 | 0.35 | 0.35 | 43 | 1025.4 |
| 20260501225544 | 41 | 262 | 0.9 | 1.7 | 0.00 | 0.35 | 0.35 | 47 | 1025.7 |
| 20260501225040 | 39 | 87 | 1.7 | 6.1 | 0.00 | 0.35 | 0.35 | 50 | 1025.6 |
| 20260501224538 | 39 | 20 | 1.7 | 1.7 | 0.00 | 0.35 | 0.35 | 55 | 1025.6 |
| 20260501224035 | 40 | 123 | 2.6 | 2.6 | 0.00 | 0.35 | 0.35 | 59 | 1025.7 |
| 20260501223531 | 40 | 348 | 1.7 | 3.5 | 0.00 | 0.35 | 0.35 | 53 | 1025.4 |
| 20260501223027 | 39 | 240 | 0.9 | 2.6 | 0.00 | 0.35 | 0.35 | 52 | 1025.4 |
| 20260501222524 | 39 | 268 | 0.0 | 0.0 | 0.00 | 0.35 | 0.35 | 49 | 1025.4 |
| 20260501222021 | 39 | 332 | 1.7 | 1.7 | 0.00 | 0.35 | 0.35 | 51 | 1025.2 |
| 20260501221517 | 38 | 296 | 2.6 | 2.6 | 0.00 | 0.35 | 0.35 | 53 | 1025.6 |
| 20260501221015 | 39 | 299 | 2.6 | 6.1 | 0.00 | 0.35 | 0.35 | 53 | 1025.3 |
| 20260501220513 | 40 | 147 | 2.6 | 3.5 | 0.00 | 0.35 | 0.35 | 50 | 1025.4 |
| 20260501220009 | 39 | 99 | 1.7 | 6.1 | 0.00 | 0.35 | 0.35 | 60 | 1025.4 |
| 20260501215505 | 39 | 282 | 0.9 | 2.6 | 0.00 | 0.35 | 0.35 | 50 | 1025.4 |
| 20260501215001 | 38 | 30 | 5.2 | 7.0 | 0.00 | 0.35 | 0.35 | 55 | 1025.6 |
| 20260501214456 | 40 | 304 | 0.9 | 8.7 | 0.00 | 0.35 | 0.35 | 57 | 1025.3 |
| 20260501213952 | 42 | 333 | 4.3 | 6.1 | 0.00 | 0.35 | 0.35 | 57 | 1025.4 |
| 20260501213450 | 41 | 251 | 0.9 | 3.5 | 0.00 | 0.35 | 0.35 | 55 | 1025.4 |
| 20260501212944 | 40 | 38 | 2.6 | 2.6 | 0.00 | 0.35 | 0.35 | 52 | 1025.7 |
| 20260501212441 | 39 | 324 | 4.3 | 6.1 | 0.00 | 0.35 | 0.35 | 60 | 1025.7 |
| 20260501211938 | 40 | 74 | 3.5 | 6.1 | 0.00 | 0.35 | 0.35 | 57 | 1025.7 |
| 20260501211436 | 39 | 357 | 2.6 | 6.1 | 0.00 | 0.35 | 0.35 | 57 | 1025.7 |
| 20260501210933 | 39 | 249 | 1.7 | 3.5 | 0.00 | 0.35 | 0.35 | 64 | 1025.7 |
| 20260501210430 | 37 | 300 | 0.9 | 2.6 | 0.00 | 0.35 | 0.35 | 66 | 1026.1 |
| 20260501205926 | 37 | 306 | 0.9 | 3.5 | 0.00 | 0.35 | 0.35 | 69 | 1025.8 |
| 20260501205423 | 37 | 289 | 1.7 | 2.6 | 0.00 | 0.35 | 0.35 | 56 | 1025.8 |
| 20260501204920 | 37 | 58 | 3.5 | 6.1 | 0.00 | 0.35 | 0.35 | 55 | 1025.7 |
| 20260501204416 | 38 | 137 | 2.6 | 3.5 | 0.00 | 0.35 | 0.35 | 59 | 1025.8 |
| 20260501203913 | 39 | 37 | 2.6 | 6.1 | 0.00 | 0.35 | 0.35 | 64 | 1025.7 |
| 20260501203410 | 38 | 7 | 6.1 | 7.8 | 0.00 | 0.35 | 0.35 | 59 | 1025.7 |
| 20260501202907 | 37 | 278 | 0.9 | 1.7 | 0.00 | 0.35 | 0.35 | 63 | 1025.8 |
| 20260501202404 | 38 | 335 | 1.7 | 2.6 | 0.00 | 0.35 | 0.35 | 63 | 1025.7 |
| 20260501201900 | 39 | 341 | 7.0 | 7.8 | 0.00 | 0.35 | 0.35 | 55 | 1025.7 |
| 20260501201357 | 41 | 45 | 3.5 | 3.5 | 0.00 | 0.35 | 0.35 | 52 | 1025.6 |
| 20260501200853 | 41 | 244 | 0.0 | 3.5 | 0.00 | 0.35 | 0.35 | 51 | 1025.6 |